C/2017 D2 ( Barros )

Japanese version
Home page
Updated on March 13, 2017

---------------------------------------------------------------------

* Profile

Discovery Date February 23, 2017
Magnitude 17.4 mag
Discoverer J. Barros (SONEAR Observatory at Oliveira)

* Orbital Elements

Epoch 2017 July 26.0 TT = JDT 2457960.5
T 2017 July 14.51814 TT                                 MPCW
q   2.4855197            (2000.0)            P               Q
z  +0.0034036      Peri.  334.33233     +0.60856970     +0.75247010
 +/-0.0056517      Node   330.97993     -0.60872366     +0.23910995
e   0.9915402      Incl.   31.27643     -0.50901712     +0.61368981
From 45 observations 2017 Feb. 23-Mar. 6, mean residual 0".3.

* Finding Charts

* Magnitudes Graph

        m1 = 10.5 + 5 log d + 10.0 log r

---------------------------------------------------------------------

The orbital elements are published on M.P.E.C. 2017-E59.
The charts are made with StellaNavigator Ver.10 (AstroArts).
The magnitudes graphs are made with Comet for Windows.

---------------------------------------------------------------------

Copyright(C) Seiichi Yoshida (comet@aerith.net). All rights reserved.